Regional Weather Roundup
Issued by NWS

Home | Current Version | Previous Version | Graphics & Text | Print | Product List | Glossary Off
Versions: 1 2 3 4 5 6 7 8 9 10 11 12 13 14 15 16 17 18 19 20 21 22 23 24 25 26 27 28 29 30 31 32 33 34 35 36 37 38 39 40 41 42 43 44 45 46 47 48 49 50

000
ASUS43 KMKX 010859
RWRWI

WISCONSIN REGIONAL WEATHER ROUNDUP
NATIONAL WEATHER SERVICE MILWAUKEE/SULLIVAN WI
300 AM CST SUN MAR 01 2015

NOTE: "FAIR" INDICATES FEW OR NO CLOUDS BELOW 12,000 FEET WITH NO
SIGNIFICANT WEATHER AND/OR OBSTRUCTIONS TO VISIBILITY.

WIZ001-002-006>008-014>016-023>028-011000-
NORTHWEST WISCONSIN

CITY           SKY/WX    TMP DP  RH WIND       PRES   REMARKS
SUPERIOR ARPT  FLURRIES  13   9  81 CALM      30.22F
ASHLAND        CLOUDY    14   6  70 SW14      30.22F WCI  -1
HAYWARD        LGT SNOW  12   5  73 S9        30.21F WCI   0
SIREN          CLOUDY    15   9  77 SW8       30.23F WCI   3
CUMBERLAND     LGT SNOW  12   9  85 S9        30.23F WCI   0
RICE LAKE      LGT SNOW  12   7  80 S8        30.27F WCI   0
CHETEK         LGT SNOW  12   6  77 S8        30.28F WCI   0
LADYSMITH      FLURRIES  11   4  71 S6        30.27F WCI   2
EAU CLAIRE     NOT AVBL
MENOMONIE      CLOUDY    14   8  76 S8        30.31F WCI   3
NEW RICHMOND   CLOUDY    13   8  81 S12       30.26F WCI  -1
OSCEOLA        MOCLDY    14   9  81 S8        30.28F WCI   3
$$

WIZ003>005-009-010-017-018-011000-
NORTH CENTRAL WISCONSIN

CITY           SKY/WX    TMP DP  RH WIND       PRES   REMARKS
MANITOWISH WTR CLOUDY    10   0  65 SW10      30.19F WCI  -4
ARBOR VITAE    PTCLDY    11   1  64 SW5       30.21F WCI   3
WOODRUFF       PTCLDY    11   1  64 SW5       30.21F WCI   3
RHINELANDER    CLOUDY     9  -2  61 SW10      30.22F WCI  -5
EAGLE RIVER    CLOUDY    10  -3  55 SW6       30.20F WCI   0
LAND O LAKES   CLOUDY    10  -1  59 SW6       30.20F WCI   1
PHILLIPS       CLOUDY    10   1  68 SW8       30.21F WCI  -3
TOMAHAWK       CLOUDY     8  -1  65 CALM      30.24F
MEDFORD        CLOUDY    10   1  68 SW9       30.26F WCI  -4
MERRILL        CLOUDY    10   0  64 SW7       30.27F WCI  -1
$$

WIZ029-030-035-036-043>047-011000-
CENTRAL WISCONSIN

CITY           SKY/WX    TMP DP  RH WIND       PRES   REMARKS
WAUSAU         CLOUDY    10   0  63 S12       30.28F WCI  -5
MOSINEE        CLOUDY    10   1  67 S9        30.30F WCI  -2
MARSHFIELD     CLOUDY    11   1  64 SW12      30.29F WCI  -3
STEVENS POINT  MOCLDY     8  -2  65 SW7       30.33F WCI  -4
WAUPACA        CLEAR     11   1  64 S5        30.36F WCI   3
WAUTOMA        NOT AVBL
WISC RAPIDS    CLOUDY    11   0  61 S8        30.34F WCI  -1
CAMP DOUGLAS   NOT AVBL
$$

WIZ011>013-019>022-031-037>040-048>050-011000-
NORTHEAST WISCONSIN

CITY           SKY/WX    TMP DP  RH WIND       PRES   REMARKS
ANTIGO         PTCLDY     7  -2  68 SW9       30.26F WCI  -7
SHAWANO        PTCLDY    15   1  56 SW5       30.34F WCI   7
OCONTO         CLOUDY    15   4  62 SW7       30.36F WCI   5
STURGEON BAY   CLOUDY    14   3  62 SW8       30.36F WCI   3
GREEN BAY      CLEAR     13   6  74 SW7       30.36F WCI   3
MANITOWOC      NOT AVBL
APPLETON       FLURRIES  12   5  73 SW8       30.35F WCI   1
CLINTONVILLE   CLEAR     10   1  67 SW6       30.34F WCI   1
OSHKOSH        CLOUDY    11   6  81 SW3       30.36F
$$

WIZ032>034-041-042-053>061-011000-
SOUTHWEST WISCONSIN

CITY           SKY/WX    TMP DP  RH WIND       PRES   REMARKS
LA CROSSE      PTCLDY    11   5  77 S7        30.36F WCI   0
SPARTA         FLURRIES  10   4  78 S3        30.36F
VIROQUA        CLOUDY     7   5  89 S5        30.32F WCI  -1
BOSCOBEL       CLOUDY     7   2  80 CALM      30.41F
PRAIRIE DU CHI LGT SNOW   7   1  78 CALM      30.40F
PLATTEVILLE    CLOUDY    11   9  89 CALM      30.37F
$$

WIZ056-057-062-063-064-067-068-011000-
SOUTH CENTRAL WISCONSIN

CITY           SKY/WX    TMP DP  RH WIND       PRES   REMARKS
REEDSBURG      LGT SNOW   9   5  85 CALM      30.37F
BARABOO/DELLS  LGT SNOW  10   6  87 SW3       30.36F
LONE ROCK      NOT AVBL
MINERAL POINT  LGT SNOW  14  12  92 S5        30.36S WCI   6
MADISON        CLOUDY    15  11  83 SW6       30.37F WCI   6
MIDDLETON      CLOUDY    16  12  84 SW3       30.38F
WATERTOWN      FLURRIES  12  11  94 CALM      30.38F
MONROE         LGT SNOW  14  12  92 S6        30.37S WCI   5
JANESVILLE     LGT SNOW  14  12  92 CALM      30.38F
$$

WIZ051-052-058>065-066-070>072-011000-
SOUTHEAST WISCONSIN

CITY           SKY/WX    TMP DP  RH WIND       PRES   REMARKS
MILWAUKEE      PTCLDY    13   8  81 SW5       30.39F WCI   5
WAUKESHA       PTCLDY    10   9  92 S3        30.38F
MILWAUKEE/TIMM CLEAR     14  10  85 CALM      30.40F
RACINE         PTCLDY    10   6  84 W3        30.41F
BURLINGTON     PTCLDY     4   1  87 CALM      30.39F
KENOSHA        PTCLDY     7   5  91 CALM      30.39F FOG
FOND DU LAC    LGT SNOW  12   7  80 SW6       30.37F WCI   3
SHEBOYGAN      MOCLDY    10   6  84 SW3       30.37F
WEST BEND      MOCLDY    10   7  85 CALM      30.37F
JUNEAU         FLURRIES  13  10  89 S5        30.38F WCI   5
$$

LSZ147-162-011000-
LAKE SUPERIOR

STATION/POSITION TIME  TEMP    WIND        PRES    WAVE
                       AIR SEA DIR/SP/G            HT/PER
                 (UTC) (F)     (DEG/KT/KT) (MB)    (FT/S)
DEVILS ISLAND    0800   15     220/ 11/ 14 1025.1F
PORT WING        0800   15     190/  9/ 15 1023.7
SAXON HARBOR     0800   15     190/  8/ 15 1024.0F
$$

LMZ867-665-643>646-011000-
LAKE MICHIGAN

STATION/POSITION TIME  TEMP    WIND        PRES    WAVE
                       AIR SEA DIR/SP/G            HT/PER
                 (UTC) (F)     (DEG/KT/KT) (MB)    (FT/S)
NORTHPORT PIER   0804   16     230/  6/ 13 1028.1F
KEWAUNEE LAKESHO 0800   17     230/  8/ 11 1028.2F
SHEBOYGAN LAKESH 0800   16     240/  8/  9 1031.2F
PORT WASHINGTON  0840   15     280/  3/  3 1029.8F
MILWAUKEE LAKESH 0800   18     220/  6/  7   N/A
KENOSHA   LAKESH 0800   18     240/  2/  4 1030.1F
$$

TC  - TEMPERATURE IN CELSIUS
VSB - VISIBILITY IN STATUTE MILES
WCI - WIND CHILL INDEX
HX  - HEAT INDEX



USA.gov is the U.S. government's official web portal to all federal, state and local government web resources and services.